Flag for Germany Weather past 2 weeks in Mühlacker, Baden-Württemberg, Germany

Now
63 °F

Sunny.


Feels Like: 63 °F
Forecast: 52 / 75 °F
Wind: 2 mph from East

Location: Stuttgart-Echterdingen

Current Time: Sep 16, 2014 at 11:24:31 AM

Latest Report: Sep 16, 2014 at 10:50 AM


Visibility: 10 mi

Pressure: 30.01 "Hg

Humidity: 83%

Dew point: 57 °F

Location of MühlackerLocation

Historic Weather in Mühlacker — Graph

°F

Mühlacker temperature yesterday

Maximum temperature yesterday: 68 °F (at 4:20 PM)
Minimum temperature yesterday: 52 °F (at 2:50 AM)
Average temperature yesterday: 60 °F

Past Weeks' High & Low Weather Summary

 TemperatureHumidityPressure
High77 °F (Sep 6, 2:50 PM)100% (Sep 2, 7:50 AM)30.18 "Hg (Sep 2, 7:50 AM)
Low52 °F (Sep 11, 1:50 AM)50% (Sep 5, 5:20 PM)29.92 "Hg (Sep 6, 2:20 PM)
Average61 °F85%30.05 "Hg
* Reported Sep 1 10:20 AM — Sep 16 10:20 AM, Mühlacker, Weather by CustomWeather, © 2014

Note: Actual official high and low records may vary slightly from our data, if they occured in-between our weather recording intervals... More about our weather records

Advertising

Mühlacker weather history for previous 24 hours

 ConditionsComfort  
Time TempWeatherWind HumidityBarometerVisibility
10:20 AM
Sep 16
63 °FSunny.1 mph83%30.01 "Hg10 mi
9:50 AM61 °FSunny.1 mph88%30.01 "Hg10 mi
9:20 AM57 °FScattered clouds.1 mph94%30.01 "Hg5 mi
8:50 AM54 °FScattered clouds.1 mph100%30.01 "Hg4 mi
8:20 AM54 °FScattered clouds.1 mph100%30.01 "Hg4 mi
7:50 AM52 °FFog.2 mph100%30.01 "Hg3 mi
7:20 AM52 °FFog.1 mph100%30.01 "Hg3 mi
6:50 AM52 °FFog.1 mph100%30.01 "Hg3 mi
6:20 AM52 °FFog.2 mph100%30.01 "Hg3 mi
5:50 AM52 °FPassing clouds.1 mph100%30.01 "Hg4 mi
5:20 AM52 °FLight fog.1 mph94%30.01 "Hg4 mi
4:50 AM52 °FFog.2 mph94%30.01 "Hg5 mi
4:20 AM52 °FFog.2 mph100%30.01 "Hg6 mi
3:50 AM52 °FFog.3 mph100%30.01 "Hg6 mi
3:20 AM54 °FFog.2 mph100%30.01 "Hg6 mi
2:50 AM54 °FClear.2 mph100%30.01 "Hg6 mi
2:20 AM54 °FClear.1 mph94%30.01 "Hg10 mi
1:50 AM54 °FPassing clouds.2 mph94%30.01 "HgN/A
1:20 AM54 °FPassing clouds.3 mph94%30.01 "HgN/A
12:50 AM55 °FPassing clouds.2 mph94%30.01 "HgN/A
12:20 AM55 °FPassing clouds.No wind94%30.01 "HgN/A
11:50 PM
Sep 15
57 °FPassing clouds.2 mph94%30.01 "HgN/A
11:20 PM59 °FPassing clouds.2 mph88%30.01 "HgN/A
10:50 PM57 °FPassing clouds.2 mph94%30.01 "HgN/A
10:20 PM59 °FPassing clouds.1 mph88%30.01 "HgN/A
9:50 PM59 °FPassing clouds.5 mph88%30.01 "HgN/A
9:20 PM59 °FPassing clouds.6 mph88%30.01 "HgN/A
8:50 PM61 °FPassing clouds.7 mph88%30.01 "HgN/A
8:20 PM63 °FScattered clouds.8 mph83%30.01 "HgN/A
7:50 PM63 °FScattered clouds.6 mph83%30.01 "HgN/A
7:20 PM64 °FScattered clouds.7 mph83%29.98 "HgN/A
6:50 PM66 °FPassing clouds.7 mph78%29.98 "HgN/A
6:20 PM66 °FPassing clouds.7 mph78%29.98 "HgN/A
5:50 PM68 °FPassing clouds.6 mph73%29.98 "HgN/A
5:20 PM68 °FPassing clouds.6 mph69%29.98 "HgN/A
4:20 PM68 °FPassing clouds.6 mph73%30.01 "HgN/A
3:50 PM66 °FScattered clouds.6 mph73%30.01 "HgN/A
3:20 PM66 °FPartly sunny.6 mph73%30.01 "HgN/A
2:50 PM66 °FPartly sunny.3 mph78%30.01 "HgN/A
2:20 PM66 °FPartly sunny.5 mph78%30.01 "HgN/A
1:50 PM66 °FBroken clouds.5 mph73%30.01 "HgN/A
1:20 PM66 °FBroken clouds.6 mph78%30.01 "HgN/A
12:50 PM64 °FBroken clouds.5 mph83%30.04 "HgN/A
12:20 PM63 °FBroken clouds.3 mph83%30.04 "HgN/A
11:50 AM63 °FPartly sunny.5 mph88%30.04 "HgN/A
11:20 AM61 °FPartly sunny.5 mph94%30.04 "Hg5 mi
Weather by CustomWeather, © 2014

See weather overviewHow to use our weather pages